NKS378 KJAX-KFLL

Flight info

Callsign NKS378
Flight time 0h 52m
Altitude 35000
Route EXBOX2 EXBOX PRMUS CUUDA3
Aircraft A20N/M-SDE2E3FGHIRWXY/LB1

Departure

Time 2026-05-08 03:09
Airport Jacksonville International Airport (KJAX)

Arrival

Time 2026-05-08 04:02
Airport Fort Lauderdale Hollywood International Airport (KFLL)
Time Latitude Longitude Altitude Speed Heading
2026-05-08 02:31 30.49084 -81.68659 26 ft 0 kts 116°
2026-05-08 02:55 30.49089 -81.68674 37 ft 2 kts 109°
2026-05-08 02:55 30.49094 -81.68712 36 ft 2 kts 78°
2026-05-08 02:55 30.49087 -81.68730 37 ft 2 kts 53°
2026-05-08 02:56 30.49076 -81.68743 34 ft 2 kts 38°
2026-05-08 02:56 30.49072 -81.68746 35 ft 0 kts 39°
2026-05-08 02:59 30.49073 -81.68745 35 ft 0 kts 39°
2026-05-08 02:59 30.49088 -81.68736 38 ft 4 kts 19°
2026-05-08 03:00 30.49107 -81.68743 36 ft 3 kts 323°
2026-05-08 03:00 30.49120 -81.68758 38 ft 3 kts 301°
2026-05-08 03:00 30.49121 -81.68784 38 ft 4 kts 266°
2026-05-08 03:00 30.49118 -81.68832 38 ft 7 kts 267°
2026-05-08 03:01 30.49138 -81.68897 38 ft 10 kts 314°
2026-05-08 03:01 30.49212 -81.68918 38 ft 12 kts
2026-05-08 03:01 30.49295 -81.68896 38 ft 12 kts 33°
2026-05-08 03:01 30.49349 -81.68822 38 ft 12 kts 52°
2026-05-08 03:02 30.49399 -81.68745 38 ft 12 kts 52°
2026-05-08 03:02 30.49450 -81.68670 38 ft 12 kts 51°
2026-05-08 03:02 30.49501 -81.68596 36 ft 12 kts 51°
2026-05-08 03:02 30.49556 -81.68528 38 ft 12 kts 35°
2026-05-08 03:03 30.49631 -81.68501 38 ft 11 kts 11°
2026-05-08 03:03 30.49707 -81.68484 38 ft 11 kts 11°
2026-05-08 03:03 30.49784 -81.68467 38 ft 11 kts 11°
2026-05-08 03:03 30.49860 -81.68450 38 ft 11 kts 11°
2026-05-08 03:04 30.49928 -81.68415 38 ft 11 kts 48°
2026-05-08 03:04 30.49954 -81.68338 38 ft 10 kts 72°
2026-05-08 03:04 30.49977 -81.68260 38 ft 11 kts 70°
2026-05-08 03:04 30.50008 -81.68160 39 ft 14 kts 70°
2026-05-08 03:05 30.50040 -81.68058 39 ft 13 kts 70°
2026-05-08 03:05 30.50071 -81.67957 36 ft 13 kts 70°
2026-05-08 03:05 30.50102 -81.67857 39 ft 13 kts 70°
2026-05-08 03:05 30.50133 -81.67758 38 ft 13 kts 70°
2026-05-08 03:06 30.50165 -81.67655 38 ft 14 kts 70°
2026-05-08 03:06 30.50196 -81.67551 38 ft 14 kts 71°
2026-05-08 03:06 30.50227 -81.67447 38 ft 14 kts 71°
2026-05-08 03:06 30.50257 -81.67344 38 ft 13 kts 70°
2026-05-08 03:07 30.50292 -81.67231 38 ft 18 kts 71°
2026-05-08 03:07 30.50337 -81.67089 38 ft 19 kts 69°
2026-05-08 03:07 30.50375 -81.66971 38 ft 0 kts 69°
2026-05-08 03:07 30.50384 -81.66962 38 ft 1 kts 22°
2026-05-08 03:08 30.50426 -81.66964 38 ft 11 kts 340°
2026-05-08 03:08 30.50500 -81.67001 39 ft 11 kts 335°
2026-05-08 03:08 30.50516 -81.67076 37 ft 11 kts 251°
2026-05-08 03:08 30.50466 -81.67240 38 ft 44 kts 250°
2026-05-08 03:09 30.50289 -81.67821 40 ft 108 kts 250°
2026-05-08 03:09 30.49971 -81.68849 49 ft 159 kts 250°
2026-05-08 03:09 30.49595 -81.70053 582 ft 156 kts 250°
2026-05-08 03:09 30.49220 -81.71217 1278 ft 151 kts 251°
2026-05-08 03:10 30.48856 -81.72361 2019 ft 158 kts 251°
2026-05-08 03:10 30.48443 -81.73663 2568 ft 182 kts 251°
2026-05-08 03:10 30.47987 -81.75122 3067 ft 206 kts 251°
2026-05-08 03:10 30.47477 -81.76762 3627 ft 225 kts 251°
2026-05-08 03:11 30.46920 -81.78518 4276 ft 238 kts 251°
2026-05-08 03:11 30.46325 -81.80342 5004 ft 246 kts 247°
2026-05-08 03:11 30.45243 -81.81922 5753 ft 259 kts 220°
2026-05-08 03:11 30.43610 -81.82871 6522 ft 268 kts 205°
2026-05-08 03:12 30.41767 -81.83399 7246 ft 279 kts 189°
2026-05-08 03:12 30.39810 -81.83138 7990 ft 293 kts 163°
2026-05-08 03:12 30.38094 -81.81802 8971 ft 306 kts 138°
2026-05-08 03:12 30.36610 -81.79988 10239 ft 314 kts 135°
2026-05-08 03:13 30.35132 -81.78052 11067 ft 329 kts 135°
2026-05-08 03:13 30.33578 -81.76007 11439 ft 347 kts 134°
2026-05-08 03:13 30.31967 -81.73890 11889 ft 361 kts 134°
2026-05-08 03:13 30.30268 -81.71663 12483 ft 368 kts 134°
2026-05-08 03:14 30.28559 -81.69430 13099 ft 373 kts 134°
2026-05-08 03:14 30.26848 -81.67201 13746 ft 378 kts 135°
2026-05-08 03:14 30.25088 -81.64909 14343 ft 383 kts 135°
2026-05-08 03:14 30.23301 -81.62587 14954 ft 388 kts 135°
2026-05-08 03:15 30.21493 -81.60239 15578 ft 394 kts 135°
2026-05-08 03:15 30.19645 -81.57844 16390 ft 402 kts 135°
2026-05-08 03:15 30.17777 -81.55420 17291 ft 407 kts 136°
2026-05-08 03:15 30.15881 -81.52963 17876 ft 413 kts 136°
2026-05-08 03:16 30.13949 -81.50463 18396 ft 419 kts 136°
2026-05-08 03:16 30.12000 -81.47940 18901 ft 423 kts 136°
2026-05-08 03:16 30.10052 -81.45420 19437 ft 426 kts 136°
2026-05-08 03:16 30.08066 -81.42852 19982 ft 429 kts 136°
2026-05-08 03:17 30.06074 -81.40278 20521 ft 433 kts 136°
2026-05-08 03:17 30.04054 -81.37670 21056 ft 436 kts 136°
2026-05-08 03:17 30.02027 -81.35055 21620 ft 439 kts 136°
2026-05-08 03:17 29.99979 -81.32415 22194 ft 443 kts 136°
2026-05-08 03:18 29.97913 -81.29754 22716 ft 447 kts 137°
2026-05-08 03:18 29.95837 -81.27081 23228 ft 450 kts 137°
2026-05-08 03:18 29.93737 -81.24379 23706 ft 453 kts 137°
2026-05-08 03:18 29.91626 -81.21666 24095 ft 456 kts 137°
2026-05-08 03:19 29.89492 -81.18934 24473 ft 459 kts 138°
2026-05-08 03:19 29.87166 -81.16456 24858 ft 454 kts 148°
2026-05-08 03:19 29.84622 -81.14361 25239 ft 454 kts 152°
2026-05-08 03:19 29.81951 -81.12432 25620 ft 451 kts 159°
2026-05-08 03:20 29.79125 -81.10880 25991 ft 449 kts 163°
2026-05-08 03:20 29.76246 -81.09460 26356 ft 451 kts 164°
2026-05-08 03:20 29.73351 -81.08058 26718 ft 453 kts 164°
2026-05-08 03:20 29.70437 -81.06643 27080 ft 456 kts 164°
2026-05-08 03:21 29.67504 -81.05215 27432 ft 458 kts 164°
2026-05-08 03:21 29.64557 -81.03777 27779 ft 461 kts 164°
2026-05-08 03:21 29.61595 -81.02331 28105 ft 463 kts 164°
2026-05-08 03:21 29.58618 -81.00876 28436 ft 466 kts 164°
2026-05-08 03:22 29.55625 -80.99414 28747 ft 468 kts 164°
2026-05-08 03:22 29.52618 -80.97946 29075 ft 471 kts 164°
2026-05-08 03:22 29.49602 -80.96474 29395 ft 473 kts 164°
2026-05-08 03:22 29.46566 -80.94992 29713 ft 475 kts 164°
2026-05-08 03:23 29.43514 -80.93505 30001 ft 477 kts 164°
2026-05-08 03:23 29.40450 -80.92012 30247 ft 480 kts 164°
2026-05-08 03:23 29.37367 -80.90511 30501 ft 482 kts 164°
2026-05-08 03:23 29.34270 -80.89004 30770 ft 484 kts 164°
2026-05-08 03:24 29.32220 -80.88007 30922 ft 485 kts 164°
2026-05-08 03:24 29.29151 -80.86509 30983 ft 470 kts 164°
2026-05-08 03:24 29.26188 -80.85062 30994 ft 461 kts 165°
2026-05-08 03:25 29.20224 -80.82176 30999 ft 468 kts 165°
2026-05-08 03:25 29.13286 -80.78816 31002 ft 466 kts 165°
2026-05-08 03:26 29.08269 -80.76389 31001 ft 468 kts 165°
2026-05-08 03:26 29.02308 -80.73508 30989 ft 468 kts 165°
2026-05-08 03:27 28.96298 -80.70629 30995 ft 467 kts 165°
2026-05-08 03:27 28.90251 -80.67909 30995 ft 466 kts 166°
2026-05-08 03:28 28.84207 -80.65212 30990 ft 466 kts 166°
2026-05-08 03:28 28.78200 -80.62530 30988 ft 466 kts 166°
2026-05-08 03:29 28.72166 -80.59838 30989 ft 466 kts 166°
2026-05-08 03:29 28.66134 -80.57149 30988 ft 466 kts 166°
2026-05-08 03:30 28.57081 -80.53120 30971 ft 465 kts 165°
2026-05-08 03:31 28.45013 -80.47760 30971 ft 465 kts 165°
2026-05-08 03:32 28.35957 -80.43747 30972 ft 465 kts 165°
2026-05-08 03:32 28.29929 -80.41079 30981 ft 465 kts 165°
2026-05-08 03:33 28.23933 -80.38429 30982 ft 466 kts 165°
2026-05-08 03:33 28.17896 -80.35765 30986 ft 466 kts 165°
2026-05-08 03:34 28.11849 -80.33099 30992 ft 466 kts 165°
2026-05-08 03:34 28.05765 -80.30581 31004 ft 465 kts 167°
2026-05-08 03:35 27.99644 -80.28197 31011 ft 465 kts 167°
2026-05-08 03:35 27.93525 -80.25813 31011 ft 465 kts 167°
2026-05-08 03:36 27.87113 -80.23313 31016 ft 465 kts 167°
2026-05-08 03:36 27.80999 -80.20931 31027 ft 465 kts 167°
2026-05-08 03:37 27.74871 -80.18546 31018 ft 465 kts 167°
2026-05-08 03:37 27.68747 -80.16165 31021 ft 465 kts 167°
2026-05-08 03:38 27.62617 -80.13782 31020 ft 466 kts 167°
2026-05-08 03:38 27.56569 -80.11310 30705 ft 463 kts 166°
2026-05-08 03:38 27.53541 -80.10058 30046 ft 464 kts 166°
2026-05-08 03:39 27.50502 -80.08805 29130 ft 468 kts 165°
2026-05-08 03:39 27.47425 -80.07540 28125 ft 474 kts 165°
2026-05-08 03:39 27.44321 -80.06261 27414 ft 473 kts 165°
2026-05-08 03:39 27.41242 -80.04992 26840 ft 469 kts 165°
2026-05-08 03:40 27.38181 -80.03775 26278 ft 463 kts 168°
2026-05-08 03:40 27.35103 -80.02773 25739 ft 457 kts 170°
2026-05-08 03:40 27.32045 -80.01842 25183 ft 453 kts 170°
2026-05-08 03:40 27.29011 -80.00926 24636 ft 450 kts 170°
2026-05-08 03:41 27.26003 -80.00005 24100 ft 447 kts 169°
2026-05-08 03:41 27.23034 -79.98982 23557 ft 445 kts 167°
2026-05-08 03:41 27.20098 -79.97924 22955 ft 440 kts 167°
2026-05-08 03:41 27.17199 -79.96871 22432 ft 434 kts 167°
2026-05-08 03:42 27.14337 -79.95834 21922 ft 429 kts 167°
2026-05-08 03:42 27.11519 -79.94815 21419 ft 423 kts 166°
2026-05-08 03:42 27.08770 -79.93823 20915 ft 418 kts 166°
2026-05-08 03:42 27.06027 -79.92794 20427 ft 413 kts 165°
2026-05-08 03:43 27.03330 -79.91715 19937 ft 409 kts 164°
2026-05-08 03:43 27.00668 -79.90638 19454 ft 404 kts 163°
2026-05-08 03:43 26.98037 -79.89573 18967 ft 400 kts 163°
2026-05-08 03:43 26.95430 -79.88519 18499 ft 396 kts 163°
2026-05-08 03:44 26.92855 -79.87479 17980 ft 392 kts 163°
2026-05-08 03:44 26.90327 -79.86458 17700 ft 376 kts 163°
2026-05-08 03:44 26.87892 -79.85475 17347 ft 369 kts 163°
2026-05-08 03:44 26.85492 -79.84510 16930 ft 365 kts 163°
2026-05-08 03:45 26.83141 -79.83565 16503 ft 362 kts 163°
2026-05-08 03:45 26.80773 -79.82613 16070 ft 359 kts 162°
2026-05-08 03:45 26.78425 -79.81669 15647 ft 356 kts 162°
2026-05-08 03:45 26.76107 -79.80737 15219 ft 352 kts 162°
2026-05-08 03:46 26.73813 -79.79816 14800 ft 348 kts 162°
2026-05-08 03:46 26.71535 -79.78977 14335 ft 341 kts 169°
2026-05-08 03:46 26.69209 -79.78819 13939 ft 332 kts 191°
2026-05-08 03:46 26.67007 -79.79460 13540 ft 324 kts 201°
2026-05-08 03:47 26.64895 -79.80307 13147 ft 320 kts 202°
2026-05-08 03:47 26.62902 -79.81139 12770 ft 319 kts 202°
2026-05-08 03:47 26.60825 -79.82004 12391 ft 319 kts 202°
2026-05-08 03:47 26.58749 -79.82862 12008 ft 317 kts 202°
2026-05-08 03:48 26.56689 -79.83709 11632 ft 314 kts 202°
2026-05-08 03:48 26.54699 -79.84578 11293 ft 308 kts 204°
2026-05-08 03:48 26.52732 -79.85493 10958 ft 303 kts 204°
2026-05-08 03:48 26.50799 -79.86404 10546 ft 301 kts 204°
2026-05-08 03:49 26.48884 -79.87307 10064 ft 298 kts 204°
2026-05-08 03:49 26.46982 -79.88202 9567 ft 294 kts 203°
2026-05-08 03:49 26.45114 -79.89080 9086 ft 290 kts 203°
2026-05-08 03:49 26.43258 -79.89952 8542 ft 288 kts 203°
2026-05-08 03:50 26.41412 -79.90819 8139 ft 287 kts 203°
2026-05-08 03:50 26.39578 -79.91680 8013 ft 286 kts 203°
2026-05-08 03:50 26.37777 -79.92640 8002 ft 286 kts 208°
2026-05-08 03:50 26.36044 -79.93719 7938 ft 283 kts 210°
2026-05-08 03:51 26.34343 -79.94812 7523 ft 282 kts 210°
2026-05-08 03:51 26.32643 -79.95909 7068 ft 283 kts 210°
2026-05-08 03:51 26.30941 -79.97006 6653 ft 282 kts 210°
2026-05-08 03:51 26.29249 -79.98095 6242 ft 280 kts 210°
2026-05-08 03:52 26.27565 -79.99175 6033 ft 278 kts 210°
2026-05-08 03:52 26.25907 -80.00241 6009 ft 279 kts 210°
2026-05-08 03:52 26.24225 -80.01322 6005 ft 279 kts 210°
2026-05-08 03:52 26.22542 -80.02404 6007 ft 279 kts 210°
2026-05-08 03:53 26.20857 -80.03487 6006 ft 279 kts 210°
2026-05-08 03:53 26.19201 -80.04610 6004 ft 279 kts 217°
2026-05-08 03:53 26.17896 -80.06180 6006 ft 278 kts 240°
2026-05-08 03:53 26.17123 -80.08147 6008 ft 278 kts 250°
2026-05-08 03:54 26.16504 -80.10188 6009 ft 278 kts 251°
2026-05-08 03:54 26.15907 -80.12236 6004 ft 278 kts 252°
2026-05-08 03:54 26.15316 -80.14287 6002 ft 278 kts 254°
2026-05-08 03:54 26.15020 -80.16405 5940 ft 276 kts 266°
2026-05-08 03:55 26.14982 -80.18530 5536 ft 274 kts 270°
2026-05-08 03:55 26.15002 -80.20654 5082 ft 274 kts 271°
2026-05-08 03:55 26.15026 -80.22777 4655 ft 274 kts 271°
2026-05-08 03:55 26.15047 -80.24890 4258 ft 272 kts 271°
2026-05-08 03:56 26.15052 -80.26981 3879 ft 269 kts 270°
2026-05-08 03:56 26.15052 -80.29054 3511 ft 266 kts 270°
2026-05-08 03:56 26.15061 -80.31106 3152 ft 263 kts 270°
2026-05-08 03:56 26.15070 -80.33110 3010 ft 261 kts 270°
2026-05-08 03:57 26.14748 -80.35072 2901 ft 257 kts 246°
2026-05-08 03:57 26.13672 -80.36626 2530 ft 255 kts 217°
2026-05-08 03:57 26.12072 -80.37360 2382 ft 248 kts 187°
2026-05-08 03:57 26.10389 -80.37286 2265 ft 239 kts 165°
2026-05-08 03:58 26.09057 -80.36321 2217 ft 225 kts 131°
2026-05-08 03:58 26.08296 -80.34872 2115 ft 212 kts 110°
2026-05-08 03:58 26.08003 -80.33858 2056 ft 204 kts 105°
2026-05-08 03:58 26.07805 -80.32348 1990 ft 191 kts 91°
2026-05-08 03:59 26.07794 -80.30881 1984 ft 189 kts 90°
2026-05-08 03:59 26.07783 -80.29420 1998 ft 189 kts 90°
2026-05-08 03:59 26.07771 -80.27952 1970 ft 190 kts 91°
2026-05-08 03:59 26.07751 -80.26484 1740 ft 190 kts 91°
2026-05-08 04:00 26.07741 -80.25020 1484 ft 187 kts 91°
2026-05-08 04:00 26.07734 -80.23594 1242 ft 183 kts 91°
2026-05-08 04:00 26.07726 -80.22210 1000 ft 173 kts 92°
2026-05-08 04:00 26.07718 -80.20941 800 ft 157 kts 92°
2026-05-08 04:01 26.07712 -80.19782 607 ft 142 kts 93°
2026-05-08 04:01 26.07705 -80.18746 446 ft 131 kts 93°
2026-05-08 04:01 26.07700 -80.17735 279 ft 131 kts 93°
2026-05-08 04:01 26.07694 -80.16727 111 ft 128 kts 92°
2026-05-08 04:02 26.07689 -80.15758 22 ft 117 kts 91°
2026-05-08 04:02 26.07683 -80.15052 19 ft 65 kts 90°
2026-05-08 04:02 26.07674 -80.14696 22 ft 23 kts 98°
2026-05-08 04:02 26.07611 -80.14538 22 ft 22 kts 117°
2026-05-08 04:03 26.07566 -80.14485 20 ft 7 kts 192°
2026-05-08 04:03 26.07560 -80.14567 20 ft 5 kts 275°
2026-05-08 04:03 26.07564 -80.14608 20 ft 5 kts 274°
2026-05-08 04:04 26.07563 -80.14654 20 ft 8 kts 269°
2026-05-08 04:04 26.07555 -80.14717 20 ft 8 kts 245°
2026-05-08 04:04 26.07511 -80.14758 19 ft 9 kts 215°
2026-05-08 04:04 26.07459 -80.14800 19 ft 9 kts 220°
2026-05-08 04:05 26.07408 -80.14847 19 ft 10 kts 208°
2026-05-08 04:05 26.07342 -80.14854 19 ft 10 kts 175°
2026-05-08 04:05 26.07273 -80.14842 21 ft 10 kts 162°
2026-05-08 04:05 26.07227 -80.14787 19 ft 10 kts 105°
2026-05-08 04:06 26.07212 -80.14718 19 ft 9 kts 96°
2026-05-08 04:06 26.07207 -80.14661 19 ft 5 kts 95°
2026-05-08 04:06 26.07197 -80.14626 19 ft 4 kts 123°
2026-05-08 04:06 26.07179 -80.14608 19 ft 2 kts 143°
2026-05-08 04:07 26.07175 -80.14604 19 ft 0 kts 143°